Location: Cañada de la Miga
(34.7595°N, 106.2317°W)
Time: 10:39:21
(UTC+00:00)

A-11 Canister half - Pass Details

Date: 09 December 2021
Orbit: 1516 x 1684 km, 47.2° (Epoch: 26 January)

Event Time Altitude Azimuth Distance (km) Brightness Sun altitude
Exits shadow 11:12:37 25° 201° (SSW) 2,739 10.1 -33.8°
Maximum altitude 11:18:20 55° 135° (SE) 1,832 9.5 -32.6°
Drops below altitude 10° 11:27:44 10° 61° (ENE) 3,842 11.7 -30.7°
Sets 11:30:58 0° 57° (ENE) 4,853 12.3 -30.0°
